Regional Weather Roundup
Issued by NWS

Home | Current Version | Previous Version | Graphics & Text | Print | Product List | Glossary Off
Versions: 1 2 3 4 5 6 7 8 9 10 11 12 13 14 15 16 17 18 19 20 21 22 23 24 25 26 27 28 29 30 31 32 33 34 35 36 37 38 39 40 41 42 43 44 45 46 47 48 49 50

000
ASUS44 KMEG 240410
RWRTN
TENNESSEE HOURLY STATE WEATHER ROUNDUP
NATIONAL WEATHER SERVICE MEMPHIS TN
1000 PM CST SUN NOV 23 2014

TNZ002-004-019-021-049-052-054-088>092-240500-
WEST TENNESSEE

CITY           SKY/WX    TMP DP  RH WIND       PRES   REMARKS
MEMPHIS INTL   PTCLDY    63  58  83 SW16G24   29.45F
NWS MEMPHIS      N/A     62 N/A N/A MISG        N/A
JACKSON        CLOUDY    62  57  83 S12       29.46S
DYERSBURG      MOCLDY    61  48  63 S8G18     29.42S
UNION CITY     CLOUDY    57  57 100 S9        29.39F
PARIS          CLOUDY    57  55  94 SW12      29.44F
HUNTINGDON     CLOUDY    58  56  93 S9        29.45S
LEXINGTON      CLOUDY    61  57  88 SW16      29.48S
SAVANNAH       CLOUDY    61  61 100 S8        29.52S
$$

TNZ008-025-027-028-033-062-065-066-240500-
NORTH MIDDLE TENNESSEE

CITY           SKY/WX    TMP DP  RH WIND       PRES   REMARKS
NASHVILLE      LGT RAIN  61  57  88 SW10G24   29.50R
CLARKSVILLE    CLOUDY    61  58  90 SW16G25   29.43R
SMYRNA         CLOUDY    62  58  87 SW13      29.52R
COOKEVILLE     CLOUDY    61  57  88 SW16      29.53R
CROSSVILLE     CLOUDY    61  54  77 S9G21     29.57R
$$

TNZ061-075-076-078-094-096-097-240500-
SOUTH MIDDLE TENNESSEE

CITY           SKY/WX    TMP DP  RH WIND       PRES   REMARKS
FAYETTEVILLE   CLOUDY    61  55  82 N12       29.58R
TULLAHOMA      CLOUDY    61  55  82 SW17      29.57R
WINCHESTER     CLOUDY    63  55  77 S10       29.59R
MCMINNVILLE    CLOUDY    63  61  94 SW12G21   29.55R
COLUMBIA       CLOUDY    63  63 100 SW14      29.51R
SHELBYVILLE    CLOUDY    63  59  88 S22G36    29.55R
$$

TNZ017-018-042-046-047-240500-
NORTHEAST TENNESSEE

CITY           SKY/WX    TMP DP  RH WIND       PRES   REMARKS
TRI CITIES     MOCLDY    59  50  72 SE5       29.61F
ELIZABETHTON   MOCLDY    52  48  87 VRB6      29.64F
$$

TNZ012-013-036-069-073-074-240500-
CENTRAL EAST TENNESSEE

CITY           SKY/WX    TMP DP  RH WIND       PRES   REMARKS
KNOXVILLE      CLOUDY    62  53  72 S24G35    29.58R
OAK RIDGE      LGT RAIN  61  55  81 SW10G20   29.59R
GATLINBURG     MOCLDY    64  50  59 SW16      29.58R
MORRISTOWN     MOCLDY    63  52  67 SW17      29.58S
$$

TNZ083-085-099-240500-
SOUTHEAST TENNESSEE

CITY           SKY/WX    TMP DP  RH WIND       PRES   REMARKS
CHATTANOOGA    CLOUDY    61  56  83 S13G20    29.63R
$$

SKY/WX REPORTED AS FAIR MEANS FEW OR NO CLOUDS BELOW
12 THOUSAND FEET.



USA.gov is the U.S. government's official web portal to all federal, state and local government web resources and services.